• In Netherlands
  • List of Countries
  • For 7 days
  • Water Temperature
  • Satellite Maps
  • Weather Map
  • Weather Widgets
  • user-avatar
    Login

    Hourly Weather Ondjiwa

    Today, 20 January, Saturday

    Time Temperature Precipitation Wind Pressure Humidity
    00:00 +26°C° 0 mm 2 mps 665 mmHg 64%
    01:00 +25°C° 0 mm 2 mps 665 mmHg 66%
    02:00 +25°C° 0.3 mm 2 mps 665 mmHg 69%
    03:00 +24°C° 0.3 mm 2 mps 665 mmHg 71%
    04:00 +24°C° 0.3 mm 1 mps 665 mmHg 74%
    05:00 +24°C° 0.1 mm 1 mps 665 mmHg 71%
    06:00 +25°C° 0.1 mm 1 mps 665 mmHg 68%
    07:00 +25°C° 0.1 mm 1 mps 666 mmHg 65%
    08:00 +28°C° 0 mm 1 mps 666 mmHg 57%
    09:00 +30°C° 0 mm 1 mps 667 mmHg 48%
    10:00 +32°C° 0 mm 1 mps 667 mmHg 40%
    11:00 +32°C° 0 mm 1 mps 667 mmHg 38%
    12:00 +32°C° 0 mm 1 mps 666 mmHg 37%
    13:00 +33°C° 0 mm 1 mps 666 mmHg 35%
    14:00 +33°C° 0 mm 1 mps 665 mmHg 35%
    15:00 +33°C° 0 mm 1 mps 665 mmHg 35%
    16:00 +33°C° 0 mm 1 mps 664 mmHg 35%
    17:00 +32°C° 0 mm 1 mps 664 mmHg 37%
    18:00 +31°C° 0 mm 1 mps 664 mmHg 39%
    19:00 +30°C° 0 mm 1 mps 664 mmHg 42%
    20:00 +29°C° 0.1 mm 1 mps 664 mmHg 43%
    21:00 +29°C° 0.1 mm 1 mps 665 mmHg 45%
    22:00 +29°C° 0.1 mm 1 mps 666 mmHg 47%
    23:00 +28°C° 0.6 mm 2 mps 665 mmHg 52%

    Tomorrow, 21 January, Sunday

    Time Temperature Precipitation Wind Pressure Humidity
    00:00 +27°C° 0.6 mm 2 mps 665 mmHg 57%
    01:00 +26°C° 0.6 mm 2 mps 665 mmHg 62%
    02:00 +25°C° 1.8 mm 2 mps 665 mmHg 67%
    03:00 +25°C° 1.8 mm 3 mps 665 mmHg 72%
    04:00 +24°C° 1.8 mm 3 mps 665 mmHg 77%
    05:00 +24°C° 0.4 mm 3 mps 665 mmHg 76%
    06:00 +24°C° 0.4 mm 3 mps 666 mmHg 75%
    07:00 +24°C° 0.4 mm 3 mps 666 mmHg 74%
    08:00 +26°C° 0.2 mm 2 mps 667 mmHg 65%
    09:00 +28°C° 0.2 mm 2 mps 667 mmHg 57%
    10:00 +30°C° 0.2 mm 1 mps 667 mmHg 48%
    11:00 +32°C° 0.1 mm 1 mps 667 mmHg 43%
    12:00 +33°C° 0.1 mm 1 mps 667 mmHg 38%
    13:00 +34°C° 0.1 mm 1 mps 667 mmHg 34%
    14:00 +34°C° 0 mm 1 mps 666 mmHg 34%
    15:00 +33°C° 0 mm 1 mps 665 mmHg 34%
    16:00 +33°C° 0 mm 1 mps 665 mmHg 35%
    17:00 +31°C° 0.3 mm 2 mps 665 mmHg 40%
    18:00 +30°C° 0.3 mm 3 mps 665 mmHg 46%
    19:00 +28°C° 0.3 mm 3 mps 665 mmHg 52%
    20:00 +27°C° 1.5 mm 3 mps 665 mmHg 57%
    21:00 +26°C° 1.5 mm 3 mps 666 mmHg 63%
    22:00 +25°C° 1.5 mm 3 mps 666 mmHg 68%
    23:00 +25°C° 0.4 mm 3 mps 666 mmHg 69%

    Day after tomorrow, 22 January, Monday

    Time Temperature Precipitation Wind Pressure Humidity
    00:00 +25°C° 0.4 mm 3 mps 666 mmHg 70%
    01:00 +24°C° 0.4 mm 3 mps 666 mmHg 72%
    02:00 +24°C° 0.5 mm 3 mps 666 mmHg 71%
    03:00 +24°C° 0.5 mm 3 mps 666 mmHg 69%
    04:00 +24°C° 0.5 mm 3 mps 665 mmHg 68%
    05:00 +24°C° 0 mm 3 mps 666 mmHg 66%
    06:00 +24°C° 0 mm 3 mps 666 mmHg 64%
    07:00 +24°C° 0 mm 3 mps 667 mmHg 62%
    08:00 +26°C° 0 mm 3 mps 667 mmHg 54%
    09:00 +27°C° 0 mm 3 mps 668 mmHg 46%
    10:00 +29°C° 0 mm 3 mps 668 mmHg 38%
    11:00 +30°C° 0 mm 3 mps 668 mmHg 35%
    12:00 +33°C° 0 mm 3 mps 667 mmHg 31%
    13:00 +34°C° 0 mm 3 mps 667 mmHg 28%
    14:00 +34°C° 0 mm 3 mps 667 mmHg 27%
    15:00 +34°C° 0 mm 3 mps 666 mmHg 26%
    16:00 +34°C° 0 mm 3 mps 665 mmHg 25%
    17:00 +33°C° 0 mm 3 mps 666 mmHg 28%
    18:00 +30°C° 0 mm 3 mps 666 mmHg 31%
    19:00 +29°C° 0 mm 3 mps 666 mmHg 34%
    20:00 +28°C° 0 mm 2 mps 666 mmHg 38%
    21:00 +27°C° 0 mm 2 mps 666 mmHg 41%
    22:00 +26°C° 0 mm 2 mps 666 mmHg 44%
    23:00 +25°C° 0 mm 2 mps 666 mmHg 50%

    23 January, Tuesday

    Time Temperature Precipitation Wind Pressure Humidity
    00:00 +25°C° 0 mm 2 mps 666 mmHg 56%
    01:00 +24°C° 0 mm 2 mps 665 mmHg 62%
    02:00 +24°C° 0 mm 2 mps 665 mmHg 63%
    03:00 +24°C° 0 mm 2 mps 665 mmHg 64%
    04:00 +23°C° 0 mm 2 mps 665 mmHg 64%
    05:00 +24°C° 0 mm 2 mps 666 mmHg 61%
    06:00 +24°C° 0 mm 3 mps 666 mmHg 57%
    07:00 +24°C° 0 mm 3 mps 666 mmHg 54%
    08:00 +26°C° 0 mm 3 mps 667 mmHg 46%
    09:00 +28°C° 0 mm 3 mps 667 mmHg 39%
    10:00 +30°C° 0 mm 3 mps 667 mmHg 31%
    11:00 +32°C° 0 mm 2 mps 667 mmHg 29%
    12:00 +35°C° 0 mm 2 mps 666 mmHg 27%
    13:00 +36°C° 0 mm 1 mps 666 mmHg 24%
    14:00 +35°C° 0 mm 1 mps 665 mmHg 25%
    15:00 +34°C° 0 mm 1 mps 665 mmHg 25%
    16:00 +34°C° 0 mm 1 mps 664 mmHg 25%
    17:00 +33°C° 0 mm 1 mps 664 mmHg 28%
    18:00 +32°C° 0 mm 1 mps 664 mmHg 30%
    19:00 +31°C° 0 mm 1 mps 664 mmHg 32%
    20:00 +30°C° 0 mm 1 mps 664 mmHg 34%
    21:00 +30°C° 0 mm 2 mps 665 mmHg 36%
    22:00 +29°C° 0 mm 2 mps 665 mmHg 39%
    23:00 +28°C° 0 mm 2 mps 665 mmHg 41%

    24 January, Wednesday

    Time Temperature Precipitation Wind Pressure Humidity
    00:00 +28°C° 0 mm 3 mps 665 mmHg 44%
    01:00 +27°C° 0 mm 4 mps 665 mmHg 46%
    02:00 +26°C° 0 mm 4 mps 665 mmHg 46%
    03:00 +25°C° 0 mm 4 mps 664 mmHg 46%
    04:00 +25°C° 0 mm 3 mps 664 mmHg 46%
    05:00 +25°C° 0 mm 3 mps 665 mmHg 45%
    06:00 +25°C° 0 mm 3 mps 665 mmHg 45%
    07:00 +25°C° 0 mm 3 mps 666 mmHg 45%
    08:00 +27°C° 0 mm 3 mps 666 mmHg 39%
    09:00 +29°C° 0 mm 3 mps 667 mmHg 34%
    10:00 +31°C° 0 mm 3 mps 667 mmHg 28%
    11:00 +32°C° 0 mm 2 mps 666 mmHg 28%
    12:00 +32°C° 0 mm 2 mps 666 mmHg 27%
    13:00 +34°C° 0 mm 2 mps 665 mmHg 26%
    14:00 +35°C° 0 mm 2 mps 665 mmHg 25%
    15:00 +35°C° 0 mm 2 mps 664 mmHg 25%
    16:00 +35°C° 0 mm 2 mps 664 mmHg 24%
    17:00 +33°C° 0 mm 1 mps 664 mmHg 26%
    18:00 +32°C° 0 mm 1 mps 664 mmHg 29%
    19:00 +30°C° 0 mm 1 mps 664 mmHg 31%
    20:00 +29°C° 0 mm 2 mps 664 mmHg 34%
    21:00 +29°C° 0 mm 2 mps 664 mmHg 37%
    22:00 +28°C° 0 mm 3 mps 665 mmHg 39%
    23:00 +27°C° 0 mm 3 mps 665 mmHg 41%

    25 January, Thursday

    Time Temperature Precipitation Wind Pressure Humidity
    00:00 +27°C° 0 mm 3 mps 665 mmHg 43%
    01:00 +26°C° 0 mm 4 mps 664 mmHg 44%
    02:00 +25°C° 0 mm 3 mps 664 mmHg 44%
    03:00 +25°C° 0 mm 3 mps 664 mmHg 44%
    04:00 +24°C° 0 mm 3 mps 664 mmHg 44%
    05:00 +24°C° 0 mm 3 mps 665 mmHg 43%
    06:00 +24°C° 0 mm 3 mps 665 mmHg 42%
    07:00 +25°C° 0 mm 3 mps 666 mmHg 41%
    08:00 +26°C° 0.1 mm 3 mps 666 mmHg 37%
    09:00 +28°C° 0.1 mm 2 mps 667 mmHg 32%
    10:00 +30°C° 0.1 mm 2 mps 667 mmHg 28%
    11:00 +31°C° 0 mm 2 mps 667 mmHg 27%
    12:00 +34°C° 0 mm 2 mps 666 mmHg 25%
    13:00 +34°C° 0 mm 1 mps 666 mmHg 24%
    14:00 +35°C° 0 mm 2 mps 665 mmHg 24%
    15:00 +35°C° 0 mm 2 mps 665 mmHg 25%
    16:00 +35°C° 0 mm 2 mps 664 mmHg 25%
    17:00 +34°C° 0 mm 2 mps 664 mmHg 29%
    18:00 +31°C° 0 mm 2 mps 664 mmHg 33%
    19:00 +30°C° 0 mm 2 mps 664 mmHg 36%
    20:00 +29°C° 0 mm 2 mps 665 mmHg 40%
    21:00 +28°C° 0 mm 2 mps 665 mmHg 44%
    22:00 +27°C° 0 mm 2 mps 665 mmHg 48%
    23:00 +27°C° 0.2 mm 2 mps 665 mmHg 49%
    Show more